Погода в Агате

Россия     66°55′21″N   93°29′25″E
темп.,
°C
ветер,
м/с
пор.,
м/с
влажн.,
%
обл.,
%
осадки,
мм/ч
давл.,
гПа
погр.,
м
16 мая, вс
вс1601:00−13сз229746 0.1 101421
04:00−14сз229765 0.0 101634
07:00−11сз229190 0.1 1016209
10:00−8сз228097 0.1 1016613
13:00−6сз3369100 0.1 10161011
16:00−6сз326299 0.1 10161013
19:00−7ссз236919 0.1 1017527
22:00−12ссз22885 0.0 101840
17 мая, пн
пн1701:00−14с229113 0.0 101923
04:00−15ссз229315 0.0 102027
07:00−11сз22865 0.0 1020151
10:00−8сз227755 0.0 1019504
13:00−6ссз226759 0.0 1018823
16:00−5с236271 0.0 1019988
19:00−6ссз23705 0.0 1019488
22:00−11с22885 0.0 102031
18 мая, вт
вт1801:00−13ссв22905 0.0 102027
04:00−14ссв22925 0.0 102030
07:00−10с22803 0.0 1019131
10:00−6с22693 0.0 1017458
13:00−4с33625 0.0 1017865
16:00−4ссв335960 0.0 10171097
19:00−5ссв337156 0.0 1017399
22:00−8ссв3384100 0.0 101842
19 мая, ср
ср1901:00−8св2285100 0.0 101847
04:00−8ссв3494100 0.1 1018161
07:00−6ссв3490100 0.4 1018447
10:00−4св3674100 0.2 10181031
13:00−3всв6769100 0.3 10181243
16:00−2всв5670100 0.1 10191101
19:00−2всв367469 0.1 1020670
22:00−7св22885 0.0 102120
20 мая, чт
чт2001:00−9св22905 0.0 102323
04:00−10св229012 0.0 102323
07:00−6св11795 0.0 1022106
10:00−3св116965 0.0 1020432
13:00−2св1166100 0.0 1019670
16:000ссв1166100 0.0 1019737
19:00−1ссв1072100 0.0 1018363
22:00−3вюв1184100 0.0 101810